Torna al catalogo

STARLINK-5117

AttivoComunicazioniVLEO
NORAD 54172·PAYLOAD·🇺🇸 United States

Lanciato Oct 28, 2022 da Vandenberg Space Force Base

Loading…

Prossimi Passaggi (prossime 24 ore)

TLE

AggiornatoSource: CelesTrak SupGP

Epoca: Sep 14, 2026, 13:41 UTC

1 54172C 22141R   26257.57062500 -.00037127  00000+0 -11269-2 0  2575
2 54172  53.1565 221.7272 0001297  91.8558 126.0836 15.33558845    18

Traccia STARLINK-5117 in tempo reale con AllMySat

Download on the App Store